Weather in Zweibrucken

Germany     49°14′57″N   7°22′13″E
temp.,
°C
wind,
m/s
gust,
m/s
humid.,
%
clouds,
%
prec.,
mm/h
press.,
hPa
HPBL,
m
15 april, thu
thu1523:00−1nne227557 0.0 102915
02:00−2nne22788 0.0 102924
05:00−2nne338225 0.0 102952
08:000ne37735 0.0 1029206
11:00+6ne56538 0.1 10281394
14:00+8ne5642100 0.3 10272412
17:00+9ene574160 0.0 10262379
20:00+4ene237249 0.2 102641
16 april, fri
fri1623:00+1ne31080100 0.0 1027198
02:00−1ne398846 0.0 1027163
05:00−1ne3108999 0.0 1027238
08:00+2ne497998 0.0 1026670
11:00+4ne676699 0.1 10261233
14:00+6ne6762100 0.1 10251425
17:00+6ne5865100 0.0 10241308
20:00+5ne477592 0.0 1025319
17 april, sat
sat1723:00+2ene239365 0.0 102548
02:00+1nne239497 0.0 102543
05:000nne33925 0.0 102447
08:00+2ne39835 0.0 1024261
11:00+7ne56595 0.0 10231112
14:00+10ne575383 0.0 10221624
17:00+9ne4761100 0.0 10221248
20:00+7ne247384 0.0 102268
18 april, sun
sun1823:00+5ne267998 0.0 1023160
02:00+4ne368684 0.0 1023191
05:00+4ne478992 0.0 1023299
08:00+4ne4786100 0.0 1024413
11:00+7ne457882 0.0 1024766
14:00+9ene466845 0.1 10231040
17:00+10ne4562100 0.1 10221218
20:00+8nne227893 0.1 102341
19 april, mon
mon1923:00+4ne229212 0.0 102415
02:00+3nne119020 0.0 102310
05:00+5n1182100 0.0 102213
08:00+7n128498 0.0 102271
11:00+9nne237464 0.3 1021534
14:00+12ne3359100 1.4 10191623
17:00+12ne346215 0.9 10181095
20:00+9e22795 1.5 101816